Regional Weather Roundup
Issued by NWS

Home | Current Version | Previous Version | Text Only | Print | Product List | Glossary On
Versions: 1 2 3 4 5 6 7 8 9 10 11 12 13 14 15 16 17 18 19 20 21 22 23 24 25 26 27 28 29 30 31 32 33 34 35 36 37 38 39 40 41 42 43 44 45 46 47 48 49 50
000
ASUS43 KMPX 252210
RWRMN
WEATHER ROUNDUP FOR MINNESOTA
NATIONAL WEATHER SERVICE TWIN CITIES/CHANHASSEN MN
500 PM CDT SAT MAR 25 2017


NOTE: "FAIR" INDICATES FEW OR NO CLOUDS BELOW 12,000 FEET WITH NO
SIGNIFICANT WEATHER AND/OR OBSTRUCTIONS TO VISIBILITY. N/A MEANS
CURRENT SKY AND/OR WEATHER CONDITIONS ARE NOT AVAILABLE.

MNZ060>063-068>070-252300-
   Twin Cities Metro

CITY           SKY/WX    TMP DP  RH WIND       PRES   REMARKS
TWIN CITIES    CLOUDY    43  32  65 E12       30.07F
ST PAUL        CLOUDY    42  34  73 E13       30.09F
CRYSTAL        CLOUDY    42  31  64 E9        30.07F
BLAINE         CLOUDY    43  34  70 NE9       30.08S
LAKEVILLE      CLOUDY    39  36  87 NE13G18   30.05F
EDEN PRAIRIE   CLOUDY    43  33  68 E10       30.05F
SOUTH ST PAUL  CLOUDY    43  33  67 E9        30.06F
LAKE ELMO      CLOUDY    41  34  75 NE10      30.08F
$$
MNZ001>005-007-008-013>017-022>024-027-028-252300-
   Northwest Minnesota

CITY           SKY/WX    TMP DP  RH WIND       PRES   REMARKS
BEMIDJI        CLOUDY    44  30  58 SE12      30.09S
HALLOCK        CLOUDY    37  34  87 S14       30.05F
ROSEAU         CLOUDY    45  34  65 S12       30.06F
WARROAD        CLOUDY    45  34  65 S9        30.07F
THIEF RVR FALL CLOUDY   N/A N/A N/A SE9       30.06F
CROOKSTON      CLOUDY    43  37  81 SW7       30.06F
FOSSTON        CLOUDY    48  32  53 SE3       30.06F
DETROIT LAKES  CLOUDY    46  32  57 SE9       30.06F
MOORHEAD       CLOUDY    39  34  81 S9        30.08F
PARK RAPIDS    CLOUDY    46  27  47 E9        30.06F
MAHNOMEN       FAIR      47  31  55 SE3       30.05F
$$
MNZ006-009>011-018-025>026-252300-
   North Central Minnesota

CITY           SKY/WX    TMP DP  RH WIND       PRES   REMARKS
BAUDETTE       PTSUNNY   44  28  53 S10       30.08F
FLAG ISLAND    CLOUDY    37  28  70 SE10      30.08F
INTL FALLS     SUNNY     41  26  55 SE15      30.13F
WASKISH        CLOUDY    46  28  49 SE12      30.09F
BIG FORK       MOSUNNY   39  28  65 SE7       30.13F
LONGVILLE      SUNNY     43  28  56 E7        30.10F
GRAND RAPIDS   CLOUDY    38  28  67 SE10      30.14F
CRANE LAKE     SUNNY     43  25  49 SE3       30.17F
ORR            SUNNY     43  23  45 SE5       30.13S
COOK           MOSUNNY   39  27  60 SE7       30.15F
WALKER         FAIR      40  29  64 E7        30.09F
$$
MNZ012-019>021-037-252300-
   Northeast Minnesota

CITY           SKY/WX    TMP DP  RH WIND       PRES   REMARKS
DULUTH         CLOUDY    32  28  85 E17       30.15F WCI  21
ELY            CLOUDY    36  27  69 SE10      30.18S
HIBBING        CLOUDY    34  27  75 E12       30.15F WCI  25
EVELETH        CLOUDY    35  26  69 E7        30.17F WCI  29
DULUTH HARBOR  CLOUDY    34  30  86 NE25G32   30.20R WCI  21
TWO HARBORS    CLOUDY    34  28  80 E17G24    30.17F WCI  23
SILVER BAY     CLOUDY    32  27  80 E16       30.19F WCI  21
GRAND MARAIS     N/A     32  26  78 NE17G28   30.26F WCI  21
G MARAIS ARPRT CLOUDY    30  18  59 E6        30.21F WCI  24
$$
MNZ029>031-032-039>041-046>048-054>057-064-252300-
   West Central Minnesota

CITY           SKY/WX    TMP DP  RH WIND       PRES   REMARKS
FERGUS FALLS   SUNNY     45  32  61 S8        30.09F
WHEATON        PTSUNNY   41  32  70 SE12      30.08F
MORRIS         CLOUDY    39  34  81 SE10      30.06F
ALEXANDRIA     MOSUNNY   43  32  65 E8        30.07F
ELBOW LAKE     FAIR      44  32  62 SE10      30.06F
WADENA         SUNNY     45  30  57 E13       30.06F
GLENWOOD       CLOUDY    39  34  81 E13       30.07F
APPLETON       CLOUDY    39  34  81 E9        30.07F
BENSON         CLOUDY    41  30  65 SE6       30.09F
ORTONVILLE     CLOUDY    37  32  81 E10       30.06F
MADISON        CLOUDY    43  39  87 E9        30.06F
WILLMAR        CLOUDY    43  36  75 NE10      30.07F
$$
MNZ033>034-036-042>043-049>051-058-059-252300-
   Central Minnesota

CITY           SKY/WX    TMP DP  RH WIND       PRES   REMARKS
ST CLOUD       CLOUDY    42  33  70 E13       30.08F
SAUK CENTRE    CLOUDY    41  33  72 SE10      30.08S
PAYNESVILLE      N/A     40  33  74 E10       30.08S
AITKIN         SUNNY     45  28  53 E12       30.09F
PINE RIVER     SUNNY     43  30  61 E12       30.12F
BRAINERD       SUNNY     45  29  53 SE5       30.09F
STAPLES        SUNNY     45  27  49 E8        30.07F
LONG PRAIRIE   FAIR      43  32  65 E7        30.07F
LITTLE FALLS   SUNNY     46  30  53 E7        30.08S
LITCHFIELD     CLOUDY    43  36  75 E12       30.07S
BUFFALO        CLOUDY    42  33  70 E12       30.08F
MAPLE LAKE     CLOUDY    43  36  75 E12       30.08S
HUTCHINSON     CLOUDY    42  36  80 NE13      30.07S
$$
MNZ037-044-045-052-053-252300-
   East Central Minnesota

CITY           SKY/WX    TMP DP  RH WIND       PRES   REMARKS
PRINCETON      CLOUDY    45  34  65 NE7       30.09F
MORA           SUNNY     45  32  61 E6        30.10F
CAMBRIDGE      CLOUDY    46  34  61 NE6       30.07F
RUSH CITY      CLOUDY    45  32  60 E7        30.10S
MOOSE LAKE     CLOUDY    37  30  75 NE8G16    30.12S
CLOQUET        CLOUDY    34  28  80 E13       30.14F WCI  25
MCGREGOR       PTSUNNY   37  30  75 E12       30.13S
$$
MNZ071>073-080-081-089-090-097-098-252300-
   Southwest Minnesota

CITY           SKY/WX    TMP DP  RH WIND       PRES   REMARKS
MONTEVIDEO     CLOUDY    39  36  87 E9        30.08F
GRANITE FALLS  CLOUDY    43  37  78 NE10      30.06F
CANBY          CLOUDY    41  37  83 CALM      30.06F
MARSHALL       CLOUDY    41  36  82 E14       30.03F
REDWOOD FALLS  CLOUDY    42  35  76 NE12      30.04F
OLIVIA         CLOUDY    41  34  75 NE12      30.05S
PIPESTONE      CLOUDY    39  36  87 E10G16    29.99S
WINDOM         CLOUDY    39  37  93 NE13      30.00F FOG
WORTHINGTON    CLOUDY    38  36  92 NE15      29.99S FOG
JACKSON        CLOUDY    36  36 100 E13       30.00S FOG
TRACY          CLOUDY    41  38  87 E13       30.03S
SLAYTON        CLOUDY    38  37  96 NE14G20   30.01S FOG
$$
MNZ065>067-074>077-082>085-091>093-252300-
   South Central Minnesota

CITY           SKY/WX    TMP DP  RH WIND       PRES   REMARKS
MANKATO        CLOUDY    40  34  79 E12       30.03F
NEW ULM        CLOUDY    41  34  75 E9        30.03F
ST JAMES       CLOUDY    39  36  87 NE13      30.03F
FAIRMONT       CLOUDY    38  36  92 NE12      30.01F FOG
GLENCOE        CLOUDY    42  37  82 NE6       30.05S
FARIBAULT      CLOUDY    39  36  87 NE9       30.04F
OWATONNA       CLOUDY    39  34  81 NE12G21   30.02F
WASECA         CLOUDY    37  34  87 NE13G23   30.03F FOG
ALBERT LEA     CLOUDY    37  36  93 NE14      29.99F FOG
$$
MNZ078>079-086>088-094>096-252300-
   Southeast Minnesota

CITY           SKY/WX    TMP DP  RH WIND       PRES   REMARKS
ROCHESTER      CLOUDY    37  35  92 NE15      30.01F
RED WING       CLOUDY    41  32  70 E8G16     30.06F
STANTON        CLOUDY    41  35  80 NE9       30.04F
DODGE CENTER   CLOUDY    37  36  93 NE16      30.01F
WINONA         CLOUDY    41  34  75 E10       30.05F
AUSTIN         DRIZZLE   37  36  93 NE15      29.99F
PRESTON        LGT RAIN  37  35  93 NE8G17    30.01S
$$
ABBREVIATIONS USED IN REMARKS
   TC - TEMPERATURES IN CELSIUS
  WCI - WIND CHILL INDEX
   HX - HEAT INDEX
  VSB - VISIBILITY
$$




USA.gov is the U.S. government's official web portal to all federal, state and local government web resources and services.